iso_date,Year,Hour,Min,DOY,POS_DOY,Lat,Lon,BP,Ts,Ta,has_bp,has_ts,has_ta,BuoyID,Buoy_Type,Buoy_Owner,Logistics,Hemisphere
2022-08-01T00:00:00Z,2022,0,0,213.0,213.0,81.1438,3.66382,-999.0,-1.1,-999.0,no,yes,no,300534062174060,NOMAD,AWI/USIABP,PolarStern,North
2022-08-01T01:00:02Z,2022,1,0,213.0417,213.0417,81.14692,3.65823,-999.0,-1.1,-999.0,no,yes,no,300534062174060,NOMAD,AWI/USIABP,PolarStern,North
2022-08-01T01:59:57Z,2022,2,0,213.0833,213.0833,81.15159,3.66138,-999.0,-1.2,-999.0,no,yes,no,300534062174060,NOMAD,AWI/USIABP,PolarStern,North
2022-08-01T03:00:00Z,2022,3,0,213.125,213.125,81.15685,3.67316,-999.0,-1.0,-999.0,no,yes,no,300534062174060,NOMAD,AWI/USIABP,PolarStern,North
2022-08-01T04:00:02Z,2022,4,0,213.1667,213.1667,81.16247,3.69482,-999.0,-1.1,-999.0,no,yes,no,300534062174060,NOMAD,AWI/USIABP,PolarStern,North
2022-08-01T04:59:57Z,2022,5,0,213.2083,213.2083,81.16805,3.72513,-999.0,-1.2,-999.0,no,yes,no,300534062174060,NOMAD,AWI/USIABP,PolarStern,North
2022-08-01T06:00:00Z,2022,6,0,213.25,213.25,81.17283,3.76434,-999.0,-1.5,-999.0,no,yes,no,300534062174060,NOMAD,AWI/USIABP,PolarStern,North
2022-08-01T07:00:02Z,2022,7,0,213.2917,213.2917,81.17524,3.81318,-999.0,-1.7,-999.0,no,yes,no,300534062174060,NOMAD,AWI/USIABP,PolarStern,North
2022-08-01T07:59:57Z,2022,8,0,213.3333,213.3333,81.17358,3.85849,-999.0,-1.7,-999.0,no,yes,no,300534062174060,NOMAD,AWI/USIABP,PolarStern,North
2022-08-01T09:00:00Z,2022,9,0,213.375,213.375,81.1692,3.89417,-999.0,-1.6,-999.0,no,yes,no,300534062174060,NOMAD,AWI/USIABP,PolarStern,North
2022-08-01T10:00:02Z,2022,10,0,213.4167,213.4167,81.16298,3.9172,-999.0,-1.4,-999.0,no,yes,no,300534062174060,NOMAD,AWI/USIABP,PolarStern,North
2022-08-01T10:59:57Z,2022,11,0,213.4583,213.4583,81.15587,3.92614,-999.0,-1.4,-999.0,no,yes,no,300534062174060,NOMAD,AWI/USIABP,PolarStern,North
2022-08-01T12:00:00Z,2022,12,0,213.5,213.5,81.14955,3.9213,-999.0,-1.3,-999.0,no,yes,no,300534062174060,NOMAD,AWI/USIABP,PolarStern,North
2022-08-01T13:00:02Z,2022,13,0,213.5417,213.5417,81.14462,3.90727,-999.0,-1.7,-999.0,no,yes,no,300534062174060,NOMAD,AWI/USIABP,PolarStern,North
2022-08-01T13:59:57Z,2022,14,0,213.5833,213.5833,81.14156,3.88938,-999.0,-1.7,-999.0,no,yes,no,300534062174060,NOMAD,AWI/USIABP,PolarStern,North
2022-08-01T15:00:00Z,2022,15,0,213.625,213.625,81.13997,3.86965,-999.0,-0.8,-999.0,no,yes,no,300534062174060,NOMAD,AWI/USIABP,PolarStern,North
2022-08-01T16:00:02Z,2022,16,0,213.6667,213.6667,81.13919,3.84699,-999.0,-0.9,-999.0,no,yes,no,300534062174060,NOMAD,AWI/USIABP,PolarStern,North
2022-08-01T16:59:57Z,2022,17,0,213.7083,213.7083,81.13959,3.82437,-999.0,-0.8,-999.0,no,yes,no,300534062174060,NOMAD,AWI/USIABP,PolarStern,North
2022-08-01T18:00:00Z,2022,18,0,213.75,213.75,81.14079,3.80244,-999.0,-0.8,-999.0,no,yes,no,300534062174060,NOMAD,AWI/USIABP,PolarStern,North
2022-08-01T19:00:02Z,2022,19,0,213.7917,213.7917,81.14223,3.7788,-999.0,-0.9,-999.0,no,yes,no,300534062174060,NOMAD,AWI/USIABP,PolarStern,North
2022-08-01T19:59:57Z,2022,20,0,213.8333,213.8333,81.14386,3.75483,-999.0,-1.2,-999.0,no,yes,no,300534062174060,NOMAD,AWI/USIABP,PolarStern,North
2022-08-01T21:00:00Z,2022,21,0,213.875,213.875,81.14587,3.73007,-999.0,-0.9,-999.0,no,yes,no,300534062174060,NOMAD,AWI/USIABP,PolarStern,North
2022-08-01T22:00:02Z,2022,22,0,213.9167,213.9167,81.14792,3.70876,-999.0,-1.6,-999.0,no,yes,no,300534062174060,NOMAD,AWI/USIABP,PolarStern,North
2022-08-01T22:59:57Z,2022,23,0,213.9583,213.9583,81.14975,3.69522,-999.0,-0.7,-999.0,no,yes,no,300534062174060,NOMAD,AWI/USIABP,PolarStern,North
2022-08-02T00:00:00Z,2022,0,0,214.0,214.0,81.15009,3.67539,-999.0,-0.9,-999.0,no,yes,no,300534062174060,NOMAD,AWI/USIABP,PolarStern,North
2022-08-02T01:00:02Z,2022,1,0,214.0417,214.0417,81.15175,3.65518,-999.0,-1.0,-999.0,no,yes,no,300534062174060,NOMAD,AWI/USIABP,PolarStern,North
2022-08-02T01:59:57Z,2022,2,0,214.0833,214.0833,81.15449,3.64186,-999.0,-1.0,-999.0,no,yes,no,300534062174060,NOMAD,AWI/USIABP,PolarStern,North
2022-08-02T03:00:00Z,2022,3,0,214.125,214.125,81.15791,3.63698,-999.0,-0.9,-999.0,no,yes,no,300534062174060,NOMAD,AWI/USIABP,PolarStern,North
2022-08-02T04:00:02Z,2022,4,0,214.1667,214.1667,81.16196,3.63784,-999.0,-1.2,-999.0,no,yes,no,300534062174060,NOMAD,AWI/USIABP,PolarStern,North
2022-08-02T04:59:57Z,2022,5,0,214.2083,214.2083,81.16583,3.64177,-999.0,-1.1,-999.0,no,yes,no,300534062174060,NOMAD,AWI/USIABP,PolarStern,North
2022-08-02T06:00:00Z,2022,6,0,214.25,214.25,81.16895,3.64927,-999.0,-1.0,-999.0,no,yes,no,300534062174060,NOMAD,AWI/USIABP,PolarStern,North
2022-08-02T07:00:02Z,2022,7,0,214.2917,214.2917,81.17038,3.65948,-999.0,-0.9,-999.0,no,yes,no,300534062174060,NOMAD,AWI/USIABP,PolarStern,North
2022-08-02T07:59:57Z,2022,8,0,214.3333,214.3333,81.16963,3.66624,-999.0,-0.9,-999.0,no,yes,no,300534062174060,NOMAD,AWI/USIABP,PolarStern,North
2022-08-02T09:00:00Z,2022,9,0,214.375,214.375,81.16679,3.66518,-999.0,-1.0,-999.0,no,yes,no,300534062174060,NOMAD,AWI/USIABP,PolarStern,North
2022-08-02T10:00:02Z,2022,10,0,214.4167,214.4167,81.16212,3.65187,-999.0,-1.0,-999.0,no,yes,no,300534062174060,NOMAD,AWI/USIABP,PolarStern,North
2022-08-02T10:59:57Z,2022,11,0,214.4583,214.4583,81.15713,3.62553,-999.0,-1.0,-999.0,no,yes,no,300534062174060,NOMAD,AWI/USIABP,PolarStern,North
2022-08-02T12:00:00Z,2022,12,0,214.5,214.5,81.15285,3.58796,-999.0,-1.0,-999.0,no,yes,no,300534062174060,NOMAD,AWI/USIABP,PolarStern,North
2022-08-02T13:00:02Z,2022,13,0,214.5417,214.5417,81.14978,3.54542,-999.0,-1.0,-999.0,no,yes,no,300534062174060,NOMAD,AWI/USIABP,PolarStern,North
2022-08-02T13:59:57Z,2022,14,0,214.5833,214.5833,81.14801,3.50643,-999.0,-0.7,-999.0,no,yes,no,300534062174060,NOMAD,AWI/USIABP,PolarStern,North
2022-08-02T15:00:00Z,2022,15,0,214.625,214.625,81.14731,3.47004,-999.0,-0.8,-999.0,no,yes,no,300534062174060,NOMAD,AWI/USIABP,PolarStern,North
2022-08-02T16:00:02Z,2022,16,0,214.6667,214.6667,81.14712,3.43335,-999.0,-0.9,-999.0,no,yes,no,300534062174060,NOMAD,AWI/USIABP,PolarStern,North
2022-08-02T16:59:57Z,2022,17,0,214.7083,214.7083,81.14726,3.39525,-999.0,-0.9,-999.0,no,yes,no,300534062174060,NOMAD,AWI/USIABP,PolarStern,North
2022-08-02T18:00:00Z,2022,18,0,214.75,214.75,81.14732,3.35482,-999.0,-0.7,-999.0,no,yes,no,300534062174060,NOMAD,AWI/USIABP,PolarStern,North
2022-08-02T19:00:02Z,2022,19,0,214.7917,214.7917,81.14696,3.31427,-999.0,-0.6,-999.0,no,yes,no,300534062174060,NOMAD,AWI/USIABP,PolarStern,North
2022-08-02T19:59:57Z,2022,20,0,214.8333,214.8333,81.14629,3.26847,-999.0,-0.5,-999.0,no,yes,no,300534062174060,NOMAD,AWI/USIABP,PolarStern,North
2022-08-02T21:00:00Z,2022,21,0,214.875,214.875,81.14498,3.21998,-999.0,-0.5,-999.0,no,yes,no,300534062174060,NOMAD,AWI/USIABP,PolarStern,North
2022-08-02T22:00:02Z,2022,22,0,214.9167,214.9167,81.14336,3.17174,-999.0,-0.6,-999.0,no,yes,no,300534062174060,NOMAD,AWI/USIABP,PolarStern,North
2022-08-02T22:59:57Z,2022,23,0,214.9583,214.9583,81.14167,3.12371,-999.0,-0.5,-999.0,no,yes,no,300534062174060,NOMAD,AWI/USIABP,PolarStern,North
2022-08-03T00:00:00Z,2022,0,0,215.0,215.0,81.1403,3.08085,-999.0,-0.5,-999.0,no,yes,no,300534062174060,NOMAD,AWI/USIABP,PolarStern,North
2022-08-03T01:00:02Z,2022,1,0,215.0417,215.0417,81.1396,3.04299,-999.0,-0.6,-999.0,no,yes,no,300534062174060,NOMAD,AWI/USIABP,PolarStern,North
2022-08-03T01:59:57Z,2022,2,0,215.0833,215.0833,81.13966,3.0121,-999.0,-0.6,-999.0,no,yes,no,300534062174060,NOMAD,AWI/USIABP,PolarStern,North
2022-08-03T03:00:00Z,2022,3,0,215.125,215.125,81.14024,2.98704,-999.0,-0.7,-999.0,no,yes,no,300534062174060,NOMAD,AWI/USIABP,PolarStern,North
2022-08-03T04:00:02Z,2022,4,0,215.1667,215.1667,81.14084,2.96952,-999.0,-0.7,-999.0,no,yes,no,300534062174060,NOMAD,AWI/USIABP,PolarStern,North
2022-08-03T04:59:57Z,2022,5,0,215.2083,215.2083,81.141,2.95712,-999.0,-0.7,-999.0,no,yes,no,300534062174060,NOMAD,AWI/USIABP,PolarStern,North
2022-08-03T06:00:00Z,2022,6,0,215.25,215.25,81.14027,2.94679,-999.0,-0.7,-999.0,no,yes,no,300534062174060,NOMAD,AWI/USIABP,PolarStern,North
2022-08-03T07:00:02Z,2022,7,0,215.2917,215.2917,81.13861,2.93513,-999.0,-0.7,-999.0,no,yes,no,300534062174060,NOMAD,AWI/USIABP,PolarStern,North
2022-08-03T07:59:57Z,2022,8,0,215.3333,215.3333,81.1356,2.91994,-999.0,-0.7,-999.0,no,yes,no,300534062174060,NOMAD,AWI/USIABP,PolarStern,North
2022-08-03T09:00:00Z,2022,9,0,215.375,215.375,81.13149,2.89877,-999.0,-0.7,-999.0,no,yes,no,300534062174060,NOMAD,AWI/USIABP,PolarStern,North
2022-08-03T10:00:02Z,2022,10,0,215.4167,215.4167,81.12654,2.8704,-999.0,-0.8,-999.0,no,yes,no,300534062174060,NOMAD,AWI/USIABP,PolarStern,North
2022-08-03T10:59:57Z,2022,11,0,215.4583,215.4583,81.12128,2.83649,-999.0,-0.9,-999.0,no,yes,no,300534062174060,NOMAD,AWI/USIABP,PolarStern,North
2022-08-03T12:00:00Z,2022,12,0,215.5,215.5,81.11616,2.79838,-999.0,-1.6,-999.0,no,yes,no,300534062174060,NOMAD,AWI/USIABP,PolarStern,North
2022-08-03T13:00:02Z,2022,13,0,215.5417,215.5417,81.11171,2.75816,-999.0,-1.7,-999.0,no,yes,no,300534062174060,NOMAD,AWI/USIABP,PolarStern,North
2022-08-03T13:59:57Z,2022,14,0,215.5833,215.5833,81.10814,2.72042,-999.0,-1.7,-999.0,no,yes,no,300534062174060,NOMAD,AWI/USIABP,PolarStern,North
2022-08-03T15:00:00Z,2022,15,0,215.625,215.625,81.10533,2.68747,-999.0,-1.7,-999.0,no,yes,no,300534062174060,NOMAD,AWI/USIABP,PolarStern,North
2022-08-03T16:00:02Z,2022,16,0,215.6667,215.6667,81.10304,2.66043,-999.0,-1.7,-999.0,no,yes,no,300534062174060,NOMAD,AWI/USIABP,PolarStern,North
2022-08-03T16:59:57Z,2022,17,0,215.7083,215.7083,81.10089,2.63831,-999.0,-1.7,-999.0,no,yes,no,300534062174060,NOMAD,AWI/USIABP,PolarStern,North
2022-08-03T18:00:00Z,2022,18,0,215.75,215.75,81.09845,2.61877,-999.0,-1.8,-999.0,no,yes,no,300534062174060,NOMAD,AWI/USIABP,PolarStern,North
2022-08-03T19:00:02Z,2022,19,0,215.7917,215.7917,81.09547,2.59764,-999.0,-1.7,-999.0,no,yes,no,300534062174060,NOMAD,AWI/USIABP,PolarStern,North
2022-08-03T19:59:57Z,2022,20,0,215.8333,215.8333,81.0918,2.57398,-999.0,-1.7,-999.0,no,yes,no,300534062174060,NOMAD,AWI/USIABP,PolarStern,North
2022-08-03T21:00:00Z,2022,21,0,215.875,215.875,81.08773,2.54181,-999.0,-1.7,-999.0,no,yes,no,300534062174060,NOMAD,AWI/USIABP,PolarStern,North
2022-08-03T22:00:02Z,2022,22,0,215.9167,215.9167,81.08344,2.50366,-999.0,-1.7,-999.0,no,yes,no,300534062174060,NOMAD,AWI/USIABP,PolarStern,North
2022-08-03T22:59:57Z,2022,23,0,215.9583,215.9583,81.0794,2.46343,-999.0,-1.7,-999.0,no,yes,no,300534062174060,NOMAD,AWI/USIABP,PolarStern,North
2022-08-04T00:00:00Z,2022,0,0,216.0,216.0,81.07595,2.42496,-999.0,-1.7,-999.0,no,yes,no,300534062174060,NOMAD,AWI/USIABP,PolarStern,North
2022-08-04T01:00:02Z,2022,1,0,216.0417,216.0417,81.07337,2.38843,-999.0,-1.7,-999.0,no,yes,no,300534062174060,NOMAD,AWI/USIABP,PolarStern,North
2022-08-04T01:59:57Z,2022,2,0,216.0833,216.0833,81.07182,2.35818,-999.0,-1.7,-999.0,no,yes,no,300534062174060,NOMAD,AWI/USIABP,PolarStern,North
2022-08-04T03:00:00Z,2022,3,0,216.125,216.125,81.07092,2.33672,-999.0,-1.8,-999.0,no,yes,no,300534062174060,NOMAD,AWI/USIABP,PolarStern,North
2022-08-04T04:00:02Z,2022,4,0,216.1667,216.1667,81.0701,2.324,-999.0,-1.8,-999.0,no,yes,no,300534062174060,NOMAD,AWI/USIABP,PolarStern,North
2022-08-04T04:59:57Z,2022,5,0,216.2083,216.2083,81.06903,2.31804,-999.0,-1.8,-999.0,no,yes,no,300534062174060,NOMAD,AWI/USIABP,PolarStern,North
2022-08-04T06:00:00Z,2022,6,0,216.25,216.25,81.06722,2.31517,-999.0,-1.8,-999.0,no,yes,no,300534062174060,NOMAD,AWI/USIABP,PolarStern,North
2022-08-04T07:00:02Z,2022,7,0,216.2917,216.2917,81.06452,2.31388,-999.0,-1.8,-999.0,no,yes,no,300534062174060,NOMAD,AWI/USIABP,PolarStern,North
2022-08-04T07:59:57Z,2022,8,0,216.3333,216.3333,81.06091,2.30759,-999.0,-1.8,-999.0,no,yes,no,300534062174060,NOMAD,AWI/USIABP,PolarStern,North
2022-08-04T09:00:00Z,2022,9,0,216.375,216.375,81.05683,2.29528,-999.0,-1.9,-999.0,no,yes,no,300534062174060,NOMAD,AWI/USIABP,PolarStern,North
2022-08-04T10:00:02Z,2022,10,0,216.4167,216.4167,81.05249,2.2777,-999.0,-1.9,-999.0,no,yes,no,300534062174060,NOMAD,AWI/USIABP,PolarStern,North
2022-08-04T10:59:57Z,2022,11,0,216.4583,216.4583,81.04835,2.25692,-999.0,-1.8,-999.0,no,yes,no,300534062174060,NOMAD,AWI/USIABP,PolarStern,North
2022-08-04T12:00:00Z,2022,12,0,216.5,216.5,81.04462,2.23511,-999.0,-1.8,-999.0,no,yes,no,300534062174060,NOMAD,AWI/USIABP,PolarStern,North
2022-08-04T13:00:02Z,2022,13,0,216.5417,216.5417,81.04141,2.21438,-999.0,-1.8,-999.0,no,yes,no,300534062174060,NOMAD,AWI/USIABP,PolarStern,North
2022-08-04T13:59:57Z,2022,14,0,216.5833,216.5833,81.03874,2.19823,-999.0,-1.8,-999.0,no,yes,no,300534062174060,NOMAD,AWI/USIABP,PolarStern,North
2022-08-04T15:00:00Z,2022,15,0,216.625,216.625,81.03639,2.18753,-999.0,-1.7,-999.0,no,yes,no,300534062174060,NOMAD,AWI/USIABP,PolarStern,North
2022-08-04T16:00:02Z,2022,16,0,216.6667,216.6667,81.03412,2.18246,-999.0,-1.8,-999.0,no,yes,no,300534062174060,NOMAD,AWI/USIABP,PolarStern,North
2022-08-04T16:59:57Z,2022,17,0,216.7083,216.7083,81.03184,2.18098,-999.0,-1.8,-999.0,no,yes,no,300534062174060,NOMAD,AWI/USIABP,PolarStern,North
2022-08-04T18:00:00Z,2022,18,0,216.75,216.75,81.02934,2.18108,-999.0,-1.7,-999.0,no,yes,no,300534062174060,NOMAD,AWI/USIABP,PolarStern,North
2022-08-04T19:00:02Z,2022,19,0,216.7917,216.7917,81.0264,2.18088,-999.0,-1.8,-999.0,no,yes,no,300534062174060,NOMAD,AWI/USIABP,PolarStern,North
2022-08-04T19:59:57Z,2022,20,0,216.8333,216.8333,81.02333,2.17561,-999.0,-1.7,-999.0,no,yes,no,300534062174060,NOMAD,AWI/USIABP,PolarStern,North
2022-08-04T21:00:00Z,2022,21,0,216.875,216.875,81.01984,2.16447,-999.0,-1.7,-999.0,no,yes,no,300534062174060,NOMAD,AWI/USIABP,PolarStern,North
2022-08-04T22:00:02Z,2022,22,0,216.9167,216.9167,81.01632,2.1523,-999.0,-1.7,-999.0,no,yes,no,300534062174060,NOMAD,AWI/USIABP,PolarStern,North
2022-08-04T22:59:57Z,2022,23,0,216.9583,216.9583,81.01327,2.13643,-999.0,-1.7,-999.0,no,yes,no,300534062174060,NOMAD,AWI/USIABP,PolarStern,North
2022-08-05T00:00:00Z,2022,0,0,217.0,217.0,81.01071,2.11858,-999.0,-1.8,-999.0,no,yes,no,300534062174060,NOMAD,AWI/USIABP,PolarStern,North
2022-08-05T01:00:02Z,2022,1,0,217.0417,217.0417,81.00873,2.10317,-999.0,-1.8,-999.0,no,yes,no,300534062174060,NOMAD,AWI/USIABP,PolarStern,North
2022-08-05T01:59:57Z,2022,2,0,217.0833,217.0833,81.00721,2.09362,-999.0,-1.8,-999.0,no,yes,no,300534062174060,NOMAD,AWI/USIABP,PolarStern,North
2022-08-05T03:00:00Z,2022,3,0,217.125,217.125,81.00616,2.09198,-999.0,-1.8,-999.0,no,yes,no,300534062174060,NOMAD,AWI/USIABP,PolarStern,North
2022-08-05T04:00:02Z,2022,4,0,217.1667,217.1667,81.00515,2.09709,-999.0,-1.8,-999.0,no,yes,no,300534062174060,NOMAD,AWI/USIABP,PolarStern,North
2022-08-05T04:59:57Z,2022,5,0,217.2083,217.2083,81.00404,2.10618,-999.0,-1.7,-999.0,no,yes,no,300534062174060,NOMAD,AWI/USIABP,PolarStern,North
2022-08-05T06:00:00Z,2022,6,0,217.25,217.25,81.00269,2.11746,-999.0,-1.8,-999.0,no,yes,no,300534062174060,NOMAD,AWI/USIABP,PolarStern,North
2022-08-05T07:00:02Z,2022,7,0,217.2917,217.2917,81.00096,2.1277,-999.0,-1.7,-999.0,no,yes,no,300534062174060,NOMAD,AWI/USIABP,PolarStern,North
2022-08-05T07:59:57Z,2022,8,0,217.3333,217.3333,80.99884,2.13565,-999.0,-1.8,-999.0,no,yes,no,300534062174060,NOMAD,AWI/USIABP,PolarStern,North
2022-08-05T09:00:00Z,2022,9,0,217.375,217.375,80.99636,2.13996,-999.0,-1.7,-999.0,no,yes,no,300534062174060,NOMAD,AWI/USIABP,PolarStern,North
2022-08-05T10:00:02Z,2022,10,0,217.4167,217.4167,80.99348,2.14023,-999.0,-1.7,-999.0,no,yes,no,300534062174060,NOMAD,AWI/USIABP,PolarStern,North
2022-08-05T10:59:57Z,2022,11,0,217.4583,217.4583,80.99072,2.13775,-999.0,-1.7,-999.0,no,yes,no,300534062174060,NOMAD,AWI/USIABP,PolarStern,North
2022-08-05T12:00:00Z,2022,12,0,217.5,217.5,80.98813,2.13392,-999.0,-1.8,-999.0,no,yes,no,300534062174060,NOMAD,AWI/USIABP,PolarStern,North
2022-08-05T13:00:02Z,2022,13,0,217.5417,217.5417,80.98578,2.1308,-999.0,-1.7,-999.0,no,yes,no,300534062174060,NOMAD,AWI/USIABP,PolarStern,North
2022-08-05T13:59:57Z,2022,14,0,217.5833,217.5833,80.98381,2.12993,-999.0,-1.8,-999.0,no,yes,no,300534062174060,NOMAD,AWI/USIABP,PolarStern,North
2022-08-05T15:00:00Z,2022,15,0,217.625,217.625,80.98202,2.13217,-999.0,-1.7,-999.0,no,yes,no,300534062174060,NOMAD,AWI/USIABP,PolarStern,North
2022-08-05T16:00:02Z,2022,16,0,217.6667,217.6667,80.98038,2.13783,-999.0,-1.7,-999.0,no,yes,no,300534062174060,NOMAD,AWI/USIABP,PolarStern,North
2022-08-05T16:59:57Z,2022,17,0,217.7083,217.7083,80.97878,2.14524,-999.0,-1.7,-999.0,no,yes,no,300534062174060,NOMAD,AWI/USIABP,PolarStern,North
2022-08-06T22:00:02Z,2022,22,0,218.9167,218.9167,80.93729,2.22267,-999.0,-1.7,-999.0,no,yes,no,300534062174060,NOMAD,AWI/USIABP,PolarStern,North
2022-08-06T22:59:57Z,2022,23,0,218.9583,218.9583,80.93612,2.21967,-999.0,-1.7,-999.0,no,yes,no,300534062174060,NOMAD,AWI/USIABP,PolarStern,North
2022-08-07T00:00:00Z,2022,0,0,219.0,219.0,80.93496,2.21424,-999.0,-1.7,-999.0,no,yes,no,300534062174060,NOMAD,AWI/USIABP,PolarStern,North
2022-08-07T01:00:02Z,2022,1,0,219.0417,219.0417,80.93384,2.20648,-999.0,-1.7,-999.0,no,yes,no,300534062174060,NOMAD,AWI/USIABP,PolarStern,North
2022-08-07T01:59:57Z,2022,2,0,219.0833,219.0833,80.93273,2.19938,-999.0,-1.7,-999.0,no,yes,no,300534062174060,NOMAD,AWI/USIABP,PolarStern,North
2022-08-07T03:00:00Z,2022,3,0,219.125,219.125,80.93165,2.19404,-999.0,-1.7,-999.0,no,yes,no,300534062174060,NOMAD,AWI/USIABP,PolarStern,North
2022-08-07T04:00:02Z,2022,4,0,219.1667,219.1667,80.93057,2.19249,-999.0,-1.7,-999.0,no,yes,no,300534062174060,NOMAD,AWI/USIABP,PolarStern,North
2022-08-07T04:59:57Z,2022,5,0,219.2083,219.2083,80.92933,2.1945,-999.0,-1.7,-999.0,no,yes,no,300534062174060,NOMAD,AWI/USIABP,PolarStern,North
2022-08-07T06:00:00Z,2022,6,0,219.25,219.25,80.92784,2.19972,-999.0,-1.7,-999.0,no,yes,no,300534062174060,NOMAD,AWI/USIABP,PolarStern,North
2022-08-07T07:00:02Z,2022,7,0,219.2917,219.2917,80.92628,2.20652,-999.0,-1.7,-999.0,no,yes,no,300534062174060,NOMAD,AWI/USIABP,PolarStern,North
2022-08-07T07:59:57Z,2022,8,0,219.3333,219.3333,80.92452,2.21275,-999.0,-1.7,-999.0,no,yes,no,300534062174060,NOMAD,AWI/USIABP,PolarStern,North
2022-08-07T09:00:00Z,2022,9,0,219.375,219.375,80.92249,2.2158,-999.0,-1.7,-999.0,no,yes,no,300534062174060,NOMAD,AWI/USIABP,PolarStern,North
2022-08-07T10:00:02Z,2022,10,0,219.4167,219.4167,80.92056,2.21586,-999.0,-1.7,-999.0,no,yes,no,300534062174060,NOMAD,AWI/USIABP,PolarStern,North
2022-08-07T10:59:57Z,2022,11,0,219.4583,219.4583,80.91863,2.21302,-999.0,-1.7,-999.0,no,yes,no,300534062174060,NOMAD,AWI/USIABP,PolarStern,North
2022-08-07T12:00:00Z,2022,12,0,219.5,219.5,80.91671,2.20693,-999.0,-1.7,-999.0,no,yes,no,300534062174060,NOMAD,AWI/USIABP,PolarStern,North
2022-08-07T13:00:02Z,2022,13,0,219.5417,219.5417,80.91477,2.19971,-999.0,-1.7,-999.0,no,yes,no,300534062174060,NOMAD,AWI/USIABP,PolarStern,North
2022-08-07T13:59:57Z,2022,14,0,219.5833,219.5833,80.91291,2.19311,-999.0,-1.7,-999.0,no,yes,no,300534062174060,NOMAD,AWI/USIABP,PolarStern,North
2022-08-07T15:00:00Z,2022,15,0,219.625,219.625,80.91109,2.19006,-999.0,-1.6,-999.0,no,yes,no,300534062174060,NOMAD,AWI/USIABP,PolarStern,North
2022-08-07T16:00:02Z,2022,16,0,219.6667,219.6667,80.90919,2.19073,-999.0,-1.6,-999.0,no,yes,no,300534062174060,NOMAD,AWI/USIABP,PolarStern,North
2022-08-07T16:59:57Z,2022,17,0,219.7083,219.7083,80.90748,2.19729,-999.0,-1.7,-999.0,no,yes,no,300534062174060,NOMAD,AWI/USIABP,PolarStern,North
2022-08-07T18:00:00Z,2022,18,0,219.75,219.75,80.90577,2.208,-999.0,-1.7,-999.0,no,yes,no,300534062174060,NOMAD,AWI/USIABP,PolarStern,North
2022-08-07T19:00:02Z,2022,19,0,219.7917,219.7917,80.90385,2.22122,-999.0,-1.7,-999.0,no,yes,no,300534062174060,NOMAD,AWI/USIABP,PolarStern,North
2022-08-07T19:59:57Z,2022,20,0,219.8333,219.8333,80.90218,2.23472,-999.0,-1.7,-999.0,no,yes,no,300534062174060,NOMAD,AWI/USIABP,PolarStern,North
2022-08-07T21:00:00Z,2022,21,0,219.875,219.875,80.90061,2.24647,-999.0,-1.7,-999.0,no,yes,no,300534062174060,NOMAD,AWI/USIABP,PolarStern,North
2022-08-07T22:00:02Z,2022,22,0,219.9167,219.9167,80.89939,2.25717,-999.0,-1.7,-999.0,no,yes,no,300534062174060,NOMAD,AWI/USIABP,PolarStern,North
2022-08-07T22:59:57Z,2022,23,0,219.9583,219.9583,80.89854,2.26513,-999.0,-1.6,-999.0,no,yes,no,300534062174060,NOMAD,AWI/USIABP,PolarStern,North
2022-08-08T00:00:00Z,2022,0,0,220.0,220.0,80.8977,2.27281,-999.0,-1.6,-999.0,no,yes,no,300534062174060,NOMAD,AWI/USIABP,PolarStern,North
2022-08-08T01:00:02Z,2022,1,0,220.0417,220.0417,80.89651,2.28171,-999.0,-1.5,-999.0,no,yes,no,300534062174060,NOMAD,AWI/USIABP,PolarStern,North
2022-08-08T01:59:57Z,2022,2,0,220.0833,220.0833,80.89479,2.29258,-999.0,-1.5,-999.0,no,yes,no,300534062174060,NOMAD,AWI/USIABP,PolarStern,North
2022-08-08T03:00:00Z,2022,3,0,220.125,220.125,80.89209,2.30619,-999.0,-1.6,-999.0,no,yes,no,300534062174060,NOMAD,AWI/USIABP,PolarStern,North
2022-08-08T04:00:02Z,2022,4,0,220.1667,220.1667,80.88849,2.32114,-999.0,-1.6,-999.0,no,yes,no,300534062174060,NOMAD,AWI/USIABP,PolarStern,North
2022-08-08T04:59:57Z,2022,5,0,220.2083,220.2083,80.88428,2.33607,-999.0,-1.6,-999.0,no,yes,no,300534062174060,NOMAD,AWI/USIABP,PolarStern,North
2022-08-08T06:00:00Z,2022,6,0,220.25,220.25,80.87978,2.34772,-999.0,-1.7,-999.0,no,yes,no,300534062174060,NOMAD,AWI/USIABP,PolarStern,North
2022-08-08T07:00:02Z,2022,7,0,220.2917,220.2917,80.87533,2.35753,-999.0,-1.7,-999.0,no,yes,no,300534062174060,NOMAD,AWI/USIABP,PolarStern,North
2022-08-08T07:59:57Z,2022,8,0,220.3333,220.3333,80.87092,2.36508,-999.0,-1.6,-999.0,no,yes,no,300534062174060,NOMAD,AWI/USIABP,PolarStern,North
2022-08-08T09:00:00Z,2022,9,0,220.375,220.375,80.86665,2.37013,-999.0,-1.6,-999.0,no,yes,no,300534062174060,NOMAD,AWI/USIABP,PolarStern,North
2022-08-08T10:00:02Z,2022,10,0,220.4167,220.4167,80.86253,2.37147,-999.0,-1.5,-999.0,no,yes,no,300534062174060,NOMAD,AWI/USIABP,PolarStern,North
2022-08-08T10:59:57Z,2022,11,0,220.4583,220.4583,80.85858,2.36968,-999.0,-1.5,-999.0,no,yes,no,300534062174060,NOMAD,AWI/USIABP,PolarStern,North
2022-08-08T12:00:00Z,2022,12,0,220.5,220.5,80.8552,2.36649,-999.0,-1.5,-999.0,no,yes,no,300534062174060,NOMAD,AWI/USIABP,PolarStern,North
2022-08-08T13:00:02Z,2022,13,0,220.5417,220.5417,80.8521,2.36467,-999.0,-1.4,-999.0,no,yes,no,300534062174060,NOMAD,AWI/USIABP,PolarStern,North
2022-08-08T13:59:57Z,2022,14,0,220.5833,220.5833,80.84946,2.36564,-999.0,-1.5,-999.0,no,yes,no,300534062174060,NOMAD,AWI/USIABP,PolarStern,North
2022-08-08T15:00:00Z,2022,15,0,220.625,220.625,80.84694,2.37025,-999.0,-1.5,-999.0,no,yes,no,300534062174060,NOMAD,AWI/USIABP,PolarStern,North
2022-08-08T16:00:02Z,2022,16,0,220.6667,220.6667,80.84449,2.381,-999.0,-1.5,-999.0,no,yes,no,300534062174060,NOMAD,AWI/USIABP,PolarStern,North
2022-08-08T16:59:57Z,2022,17,0,220.7083,220.7083,80.84183,2.39768,-999.0,-1.6,-999.0,no,yes,no,300534062174060,NOMAD,AWI/USIABP,PolarStern,North
2022-08-08T18:00:00Z,2022,18,0,220.75,220.75,80.83884,2.41888,-999.0,-1.6,-999.0,no,yes,no,300534062174060,NOMAD,AWI/USIABP,PolarStern,North
2022-08-09T00:00:00Z,2022,0,0,221.0,221.0,80.8238,2.53698,-999.0,-1.4,-999.0,no,yes,no,300534062174060,NOMAD,AWI/USIABP,PolarStern,North
2022-08-09T01:00:02Z,2022,1,0,221.0417,221.0417,80.82271,2.54724,-999.0,-1.4,-999.0,no,yes,no,300534062174060,NOMAD,AWI/USIABP,PolarStern,North
2022-08-09T01:59:57Z,2022,2,0,221.0833,221.0833,80.822,2.55587,-999.0,-1.3,-999.0,no,yes,no,300534062174060,NOMAD,AWI/USIABP,PolarStern,North
2022-08-09T03:00:00Z,2022,3,0,221.125,221.125,80.82182,2.56982,-999.0,-1.3,-999.0,no,yes,no,300534062174060,NOMAD,AWI/USIABP,PolarStern,North
2022-08-09T04:00:02Z,2022,4,0,221.1667,221.1667,80.82124,2.59078,-999.0,-1.4,-999.0,no,yes,no,300534062174060,NOMAD,AWI/USIABP,PolarStern,North
2022-08-09T04:59:57Z,2022,5,0,221.2083,221.2083,80.81931,2.61462,-999.0,-1.2,-999.0,no,yes,no,300534062174060,NOMAD,AWI/USIABP,PolarStern,North
2022-08-09T06:00:00Z,2022,6,0,221.25,221.25,80.81608,2.63779,-999.0,-1.4,-999.0,no,yes,no,300534062174060,NOMAD,AWI/USIABP,PolarStern,North